W4GHW Weather Reports


Display with metric or nautical units.
time (UTC)temp
F
wind
direction
speed
MPH
gust
MPH
rain 1hr
in
rain 24hr
in
rain mn
in
humidity
%
barometer
mb
20260507150005 70 200 5.0 21.0 0.04 1.08 1.08 92 1013.3
20260507145004 70 159 4.0 20.0 0.07 1.08 1.08 92 1012.9
20260507144005 70 83 5.0 22.0 0.11 1.08 1.08 92 1013.5
20260507142005 70 188 5.0 15.0 0.15 1.08 1.08 92 1013.1
20260507141004 70 147 5.0 18.0 0.17 1.07 1.07 92 1012.6
20260507140005 70 156 5.0 14.0 0.26 1.04 1.04 92 1013.9
20260507135005 70 186 6.0 14.0 0.29 1.01 1.01 92 1014.4
20260507134005 70 167 3.0 14.0 0.28 0.97 0.97 92 1014.9
20260507133004 70 163 5.0 10.0 0.32 0.95 0.95 92 1015.0
20260507132004 70 159 4.0 10.0 0.47 0.93 0.93 92 1015.5
20260507131005 70 190 3.0 10.0 0.44 0.90 0.90 92 1015.7
20260507130004 70 220 4.0 10.0 0.33 0.78 0.78 92 1016.0
20260507125004 70 246 3.0 12.0 0.27 0.72 0.72 92 1016.0
20260507124004 70 249 2.0 10.0 0.24 0.69 0.69 92 1015.0
20260507123004 70 212 4.0 12.0 0.19 0.63 0.63 92 1015.2
20260507122004 69 260 2.0 15.0 0.15 0.46 0.46 92 1013.8
20260507121005 70 192 1.0 15.0 0.28 0.46 0.46 92 1013.1
20260507120004 69 152 4.0 12.0 0.35 0.45 0.45 92 1012.9
20260507115004 69 154 5.0 12.0 0.37 0.45 0.45 92 1012.9
20260507114004 69 171 5.0 13.0 0.37 0.45 0.45 91 1013.3
20260507113004 69 152 5.0 16.0 0.36 0.44 0.44 91 1013.5
20260507111003 69 170 3.0 9.0 0.11 0.18 0.18 91 1014.5
20260507110004 69 158 3.0 8.0 0.03 0.10 0.10 91 1014.0
20260507105004 69 191 3.0 9.0 0.01 0.08 0.08 91 1013.5
20260507104004 68 156 2.0 7.0 0.01 0.08 0.08 90 1013.2
20260507102006 68 157 3.0 8.0 0.00 0.07 0.07 90 1012.8
20260507101004 68 142 3.0 8.0 0.00 0.07 0.07 90 1012.4
20260507100005 68 129 3.0 10.0 0.01 0.07 0.07 90 1012.6
20260507095004 68 124 4.0 9.0 0.05 0.07 0.07 89 1012.6
20260507094005 69 113 3.0 7.0 0.06 0.07 0.07 89 1013.2
20260507093004 69 97 3.0 6.0 0.07 0.07 0.07 88 1014.2
20260507092005 69 101 1.0 3.0 0.07 0.07 0.07 88 1014.5
20260507091004 69 42 1.0 12.0 0.07 0.07 0.07 87 1015.1
20260507090005 70 336 5.0 12.0 0.06 0.06 0.06 85 1015.7
20260507085005 72 343 2.0 5.0 0.02 0.02 0.02 83 1015.2
20260507084005 72 321 2.0 3.0 0.01 0.01 0.01 82 1015.1
20260507083004 72 57 1.0 3.0 0.00 0.00 0.00 81 1014.7
20260507081005 72 347 4.0 8.0 0.00 0.00 0.00 81 1015.0
20260507080004 71 331 3.0 6.0 0.00 0.00 0.00 80 1014.8
20260507075005 72 272 3.0 6.0 0.00 0.00 0.00 81 1013.7
20260507073004 72 233 3.0 7.0 0.00 0.00 0.00 83 1012.8
20260507071004 72 179 2.0 12.0 0.00 0.00 0.00 83 1012.2
20260507070009 72 220 1.0 9.0 0.00 0.00 0.00 82 1012.6
20260507065005 72 164 2.0 6.0 0.00 0.00 0.00 81 1012.5
20260507064005 73 180 1.0 6.0 0.00 0.00 0.00 80 1012.4
20260507063005 73 163 1.0 3.0 0.00 0.00 0.00 79 1012.8
20260507062004 73 143 1.0 3.0 0.00 0.00 0.00 79 1013.3
20260507061005 73 284 2.0 6.0 0.00 0.00 0.00 78 1013.6
20260507060004 74 175 1.0 6.0 0.00 0.00 0.00 77 1013.6
20260507054004 74 253 2.0 7.0 0.00 0.00 0.00 76 1014.2
20260507053005 74 142 1.0 6.0 0.00 0.00 0.00 75 1013.6
20260507052004 74 204 1.0 5.0 0.00 0.00 0.00 74 1014.1
20260507051005 75 240 0.0 7.0 0.00 0.00 0.00 74 1014.5
20260507050005 75 279 1.0 5.0 0.00 0.00 0.00 73 1014.6
20260507045005 75 212 1.0 9.0 0.00 0.00 0.00 72 1014.6
20260507044004 75 186 3.0 10.0 0.00 0.00 0.00 72 1014.5
20260507043004 76 197 3.0 9.0 0.00 0.00 0.00 71 1014.4
20260507042004 76 201 2.0 8.0 0.00 0.00 0.00 70 1014.2
20260507041004 76 207 2.0 8.0 0.00 0.00 0.00 70 1014.7
20260507040004 76 201 2.0 8.0 0.00 0.00 0.00 69 1014.6
20260507035004 77 213 3.0 6.0 0.00 0.00 0.00 69 1014.7
20260507034004 77 196 1.0 6.0 0.00 0.00 0.00 68 1014.9
20260507031005 78 168 2.0 7.0 0.00 0.00 0.00 66 1014.7
20260507030004 78 192 3.0 8.0 0.00 0.00 0.00 65 1014.5
20260507025004 78 196 1.0 10.0 0.00 0.00 0.00 64 1014.8
20260507024004 78 159 2.0 10.0 0.00 0.00 0.00 63 1014.4
20260507021004 78 177 1.0 3.0 0.00 0.00 0.00 62 1014.4
20260507015004 78 181 1.0 3.0 0.00 0.00 0.00 61 1014.3
20260507014004 78 235 1.0 2.0 0.00 0.00 0.00 61 1014.4
20260507012005 78 196 0.0 1.0 0.00 0.00 0.00 60 1014.6
20260507011004 79 196 0.0 2.0 0.00 0.00 0.00 58 1014.4
20260507010004 80 196 0.0 1.0 0.00 0.00 0.00 57 1014.3
20260507005004 80 211 0.0 2.0 0.00 0.00 0.00 56 1014.2
20260507004004 80 211 0.0 2.0 0.00 0.00 0.00 55 1014.1
20260507003004 81 198 1.0 2.0 0.00 0.00 0.00 54 1014.2
20260507002004 82 197 0.0 3.0 0.00 0.00 0.00 53 1014.3
20260507000003 82 195 1.0 3.0 0.00 0.00 0.00 51 1014.3
20260506235004 83 151 0.0 3.0 0.00 0.00 0.00 50 1014.3
20260506234004 83 172 1.0 3.0 0.00 0.00 0.00 49 1014.4
20260506233003 84 219 3.0 8.0 0.00 0.00 0.00 48 1014.4
20260506232004 85 196 2.0 6.0 0.00 0.00 0.00 46 1014.1
20260506231004 85 206 2.0 10.0 0.00 0.00 0.00 45 1014.2
20260506230003 86 205 3.0 7.0 0.00 0.00 0.00 43 1014.1
20260506225004 87 225 2.0 10.0 0.00 0.00 0.00 44 1014.4
20260506224004 88 225 2.0 8.0 0.00 0.00 0.00 45 1014.2
20260506223004 88 153 3.0 8.0 0.00 0.00 0.00 43 1014.3
20260506222004 89 151 3.0 10.0 0.00 0.00 0.00 43 1014.5
20260506221004 89 216 3.0 7.0 0.00 0.00 0.00 42 1014.5
20260506220004 89 183 2.0 9.0 0.00 0.00 0.00 43 1014.2
20260506215005 89 193 2.0 8.0 0.00 0.00 0.00 42 1014.4
20260506214004 89 272 2.0 8.0 0.00 0.00 0.00 43 1014.6
20260506213004 88 243 3.0 10.0 0.00 0.00 0.00 44 1015.0
20260506211004 88 199 4.0 9.0 0.00 0.00 0.00 41 1015.2
20260506210004 88 227 3.0 8.0 0.00 0.00 0.00 43 1015.3
20260506205004 89 203 4.0 12.0 0.00 0.00 0.00 41 1015.2
20260506204004 89 251 2.0 9.0 0.00 0.00 0.00 41 1015.4
20260506203004 89 215 3.0 9.0 0.00 0.00 0.00 41 1015.3
20260506202003 89 218 5.0 10.0 0.00 0.00 0.00 42 1015.6
20260506201004 88 294 5.0 13.0 0.00 0.00 0.00 41 1015.6
20260506200004 88 270 2.0 14.0 0.00 0.00 0.00 43 1015.8
20260506195004 88 276 7.0 13.0 0.00 0.00 0.00 42 1015.8
20260506194003 88 220 5.0 10.0 0.00 0.00 0.00 42 1016.0
20260506193003 88 258 6.0 14.0 0.00 0.00 0.00 42 1016.1
20260506192003 89 258 3.0 10.0 0.00 0.00 0.00 41 1016.1
20260506191003 88 234 5.0 12.0 0.00 0.00 0.00 42 1016.3
20260506190004 88 276 6.0 12.0 0.00 0.00 0.00 41 1016.4
20260506185004 87 221 4.0 10.0 0.00 0.00 0.00 42 1016.4
20260506184004 86 272 3.0 15.0 0.00 0.00 0.00 43 1016.5
20260506183005 87 275 6.0 14.0 0.00 0.00 0.00 42 1016.5
20260506181004 87 262 4.0 10.0 0.00 0.00 0.00 44 1016.9
20260506180005 86 254 5.0 12.0 0.00 0.00 0.00 42 1016.9
20260506175004 85 238 2.0 10.0 0.00 0.00 0.00 46 1016.8
20260506174004 86 271 3.0 13.0 0.00 0.00 0.00 47 1017.0
20260506173004 86 253 3.0 9.0 0.00 0.00 0.00 47 1017.0
20260506172004 86 261 3.0 8.0 0.00 0.00 0.00 48 1017.3
20260506171004 84 275 4.0 10.0 0.00 0.00 0.00 48 1017.4
20260506170004 85 286 5.0 10.0 0.00 0.00 0.00 49 1017.6
20260506164004 84 257 5.0 12.0 0.00 0.00 0.00 50 1017.9
20260506155003 81 214 3.0 10.0 0.00 0.00 0.00 58 1018.0
20260506154004 81 240 3.0 9.0 0.00 0.00 0.00 58 1017.9
20260506153004 81 260 6.0 12.0 0.00 0.00 0.00 58 1018.0
20260506152004 81 252 5.0 12.0 0.00 0.00 0.00 61 1017.9
20260506151004 79 215 4.0 10.0 0.00 0.00 0.00 64 1018.1